This demonstration page uses our WeatherBlox Daily Observations layout. Learn more.

Hourly Observations for August 17, 2016

Temp ( °F °C ) Dew Point ( °F °C ) Humidity (%) Winds ( mph kmh ) Pressure ( in mb ) Visibility ( mi km ) Precip ( " mm )
12:54 am 00:54 Clear 72 22.2 68 20 87 87 S 5 7 30.01 1016 10 16.0934 0 0
1:54 am 01:54 Clear 75 23.9 68 20 79 79 SW 3 6 30.01 1016 10 16.0934 0 0
2:54 am 02:54 Clear 72 22.2 67 19.4 84 84 SSW 6 9 29.99 1016 10 16.0934 0 0
3:54 am 03:54 Clear 71 21.7 67 19.4 87 87 Calm 29.98 1015 10 16.0934 0 0
4:54 am 04:54 Clear 67 19.4 65 18.3 93 93 Calm 29.99 1016 10 16.0934 0 0
5:54 am 05:54 Clear 66 18.9 64 17.8 93 93 NNW 5 7 30 1016 10 16.0934 0 0
6:54 am 06:54 Sunny 65 18.3 63 17.2 93 93 Calm 30.02 1017 10 16.0934 0 0
7:28 am 07:28 Mostly Sunny 66 19 66 19 100 100 S 5 7 30.03 1017 8 12.87472 0 0
7:54 am 07:54 Sunny 70 21.1 66 18.9 87 87 WNW 5 7 30.03 1017 10 16.0934 0 0
8:54 am 08:54 Sunny 73 22.8 68 20 84 84 Calm 30.04 1017 10 16.0934 0 0
9:54 am 09:54 Sunny 79 26.1 70 21.1 74 74 Calm 30.04 1017 8 12.87472 0 0
10:54 am 10:54 Sunny 82 27.8 70 21.1 67 67 Calm 30.04 1017 10 16.0934 0 0
11:54 am 11:54 Sunny 85 29.4 71 21.7 63 63 VRB 3 6 30.04 1017 10 16.0934 0 0
12:54 pm 12:54 Sunny 87 30.6 72 22.2 61 61 VRB 3 6 30.02 1017 10 16.0934 0 0
1:54 pm 13:54 Sunny 88 31.1 72 22.2 59 59 E 9 15 30 1016 10 16.0934 0 0
2:54 pm 14:54 Sunny 91 32.8 73 22.8 56 56 NNE 6 9 29.99 1016 10 16.0934 0 0
3:54 pm 15:54 Sunny 91 32.8 70 21.1 50 50 VRB 6 9 29.97 1015 10 16.0934 0 0
4:54 pm 16:54 Sunny 92 33.3 72 22.2 52 52 ESE 9 15 29.97 1015 10 16.0934 0 0
5:54 pm 17:54 Sunny 91 32.8 71 21.7 52 52 ESE 8 13 29.96 1015 10 16.0934 0 0
6:54 pm 18:54 Sunny 89 31.7 72 22.2 57 57 ESE 9 15 29.96 1014 10 16.0934 0 0
7:54 pm 19:54 Sunny 86 30 72 22.2 63 63 ESE 8 13 29.96 1014 10 16.0934 0 0
8:54 pm 20:54 Clear 84 28.9 74 23.3 72 72 ESE 6 9 29.97 1015 10 16.0934 0 0
9:54 pm 21:54 Clear 81 27.2 75 23.9 82 82 E 6 9 29.98 1015 10 16.0934 0 0
10:54 pm 22:54 Clear 80 26.7 73 22.8 79 79 ESE 7 11 29.98 1015 10 16.0934 0 0
11:54 pm 23:54 Clear 78 25.6 73 22.8 85 85 ESE 5 7 29.99 1016 10 16.0934 0 0

Powered by AerisWeather